Tracking 30107 objects as of 25-Jan-2025
HD Live streaming from Space Station
objects crossing your sky now

ONEWEB-0041

Track ONEWEB-0041 now!
10-day predictions
ONEWEB-0041 is classified as:


NORAD ID: 45148
Int'l Code: 2020-008T
Perigee: 1,072.9 km
Apogee: 1,096.7 km
Inclination: 87.9 °
Period: 106.8 minutes
Semi major axis: 7455 km
RCS: Unknown
Launch date: February 6, 2020
Source: United Kingdom (UK)
Launch site: TYURATAM MISSILE AND SPACE COMPLEX (TTMTR)
Your satellite tracking list
Your tracking list is empty




NASA's NSSDC Master Catalog

Two Line Element Set (TLE):
1 45148U 20008T   25024.72673392  .00000123  00000-0  17597-3 0  9992
2 45148  87.9321 109.8554 0015965 247.8121 112.1334 13.48527081249523
Source of the keplerian elements: AFSPC